Tracking 30995 objects as of 5-Jul-2025
HD Live streaming from Space Station
objects crossing your sky now

STARLINK-30407

Track STARLINK-30407 now!
10-day predictions
STARLINK-30407 is classified as:


NORAD ID: 57823
Int'l Code: 2023-138R
Perigee: 489.3 km
Apogee: 491.0 km
Inclination: 43.0 °
Period: 94.3 minutes
Semi major axis: 6861 km
RCS: Unknown
Launch date: September 9, 2023
Source: United States (US)
Launch site: AIR FORCE EASTERN TEST RANGE (AFETR)
Your satellite tracking list
STARLINK-30915
Track 1 satellite(s)




NASA's NSSDC Master Catalog

Two Line Element Set (TLE):
1 57823U 23138R   25186.11735176  .00001023  00000-0  46674-4 0  9992
2 57823  43.0043  86.9345 0001269 260.9184  99.1524 15.27587088102109
Source of the keplerian elements: AFSPC